[[{"header":{"parameterUnit":"m.s-1","parameterCategory":1,"la1":30.2991,"la2":30.254,"lo1":-89.0895,"lo2":-89.0444,"dy":0.0017,"dx":0.0017,"nx":28,"ny":28,"refTime":"2024-05-15T21:00:00:Z","depth":0,"parameterNumber":2,"parameterNumberName":"U-component_of_WINDS"},"data":[0,0,0,0,0,0,0,0,0,0,0,0,0,0,0,0,0,0,0,0,0,0,0,0,0,0,0,0,0,0,0,0,0,0,0,0,0,0,0,0,0,0,0,0,0,0,0,0,0,0,0,0,0,0,0,0,0,0,3.4881,3.4881,0,3.4889,3.4889,3.4889,3.486,3.4859,3.4858,3.4857,3.4868,3.4869,3.487,0,0,0,0,0,0,0,0,0,0,0,0,0,3.4843,3.4844,3.4881,3.4881,3.4881,3.4889,3.4889,3.4889,3.486,3.4859,3.4858,3.4857,3.4868,3.4869,3.487,0,0,0,0,0,0,0,0,0,0,0,0,0,3.4856,3.4844,3.4881,3.4867,3.4866,3.4889,3.4889,3.4889,3.486,3.4859,3.4858,3.4856,3.4867,3.4869,3.487,3.4907,0,0,3.4875,3.4876,0,0,0,0,0,0,0,0,3.4856,3.4858,3.4869,3.4868,3.4867,3.4872,3.488,3.4895,3.4861,3.4863,3.4857,3.4856,3.487,3.4872,3.4876,3.4907,3.4908,3.4876,3.4877,3.4877,3.4878,0,0,0,0,0,0,0,3.4855,3.4857,3.4884,3.4869,3.4868,3.4862,3.4863,3.4883,3.4874,3.4862,3.486,3.4862,3.487,3.4875,3.4876,3.4908,3.4875,3.4877,3.4878,3.4879,3.4974,3.4975,0,0,0,0,0,0,3.4855,3.4857,3.4884,3.4884,3.4858,3.4864,3.4864,3.4872,3.4874,3.4873,3.4863,3.486,3.4873,3.4874,3.4877,3.4922,3.4877,3.4879,3.488,3.4972,3.4974,3.4976,0,0,0,0,0,0,3.4855,3.4858,3.4883,3.487,3.4873,3.4866,3.4875,3.4873,3.4878,3.4874,3.4872,3.4869,3.4872,3.4874,3.49,3.4922,3.4879,3.4881,3.497,3.4973,3.4975,3.5012,0,0,0,0,0,0,3.4854,3.4858,3.4871,3.487,3.4874,3.4906,3.4876,3.4874,3.488,3.4877,3.488,3.4879,3.4871,3.4898,3.4902,3.4923,3.4882,3.4968,3.4971,3.4974,3.5009,3.5015,3.502,0,0,0,0,0,3.4852,3.488,3.4871,3.4875,3.4889,3.4907,3.4909,3.4899,3.4882,3.4896,3.4894,3.4879,3.4919,3.4901,3.4905,3.4927,3.4967,3.497,3.4974,3.5006,3.5014,3.502,0,0,0,0,0,0,3.4883,3.488,3.487,3.4898,3.4903,3.4902,3.4919,3.4907,3.4917,3.4913,3.4901,3.4902,3.4931,3.4931,3.4912,3.4965,3.494,3.4945,3.4963,3.4971,3.4976,3.4976,3.4884,0,0,0,0,0,3.4893,3.4907,3.4904,3.4929,3.4932,3.4925,3.4933,3.4925,3.4929,3.4931,3.4931,3.4937,3.4951,3.4961,3.4973,3.5009,3.501,3.5026,3.5032,3.5037,3.5041,3.5063,3.5071,3.4987,3.4987,3.4987,0,0,3.4914,3.4914,3.4923,3.4936,3.4938,3.4955,3.4927,3.4944,3.4957,3.4934,3.4959,3.496,3.4966,3.4997,3.5011,3.4999,3.5065,3.5041,3.5045,3.5047,3.5068,3.5076,3.5083,3.4989,3.4989,3.4988,0,0,3.4961,3.4961,3.4984,3.4988,3.4992,3.4988,3.4994,3.4995,3.4994,3.5019,3.5003,3.5019,3.5042,3.5049,3.5055,3.5107,3.5095,3.5112,3.5143,3.5165,3.5171,3.5177,3.5198,3.5206,3.5116,3.5116,3.5116,0,3.4986,3.5009,3.4997,3.5016,3.5024,3.5004,3.5028,3.5032,3.5041,3.5048,3.5033,3.5065,3.5068,3.5102,3.5115,3.512,3.5128,3.5111,3.5171,3.5177,3.5182,3.5202,3.521,3.5118,3.5118,3.5118,3.5117,0,3.5041,3.5058,3.5076,3.5085,3.5094,3.5116,3.5109,3.512,3.5112,3.511,3.5137,3.514,3.5154,3.5162,3.5153,3.5196,3.5188,3.5173,3.5148,3.5193,3.5211,3.5219,3.5121,3.512,3.512,3.5119,0,0,3.5106,3.5111,3.5118,3.5123,3.5128,3.5142,3.5164,3.5178,3.5188,3.5196,3.5216,3.5238,3.5225,3.5232,3.5225,3.5243,3.5288,3.5226,3.5226,3.5239,3.5338,3.5351,3.5359,3.528,3.5281,3.5282,3.5338,0,3.5154,3.5191,3.5182,3.522,3.5236,3.5219,3.5239,3.5245,3.5245,3.526,3.5259,3.5276,3.5256,3.5261,3.5278,3.5279,3.5308,3.5274,3.53,3.5301,3.53,3.5369,3.5381,3.5434,3.5345,3.5346,3.5347,0,3.5213,3.5224,3.5263,3.5269,3.5275,3.5293,3.5307,3.5321,3.5329,3.5327,3.5337,3.5327,3.5351,3.5326,3.5361,3.5338,3.5349,3.5351,3.5353,3.5356,3.5327,3.5375,3.545,3.5459,3.5358,3.5357,3.5357,0,3.526,3.5284,3.5311,3.5316,3.5322,3.5336,3.5339,3.5346,3.5356,3.5368,3.5375,3.539,3.5399,3.5412,3.5408,3.5389,3.5444,3.5418,3.5446,3.5446,3.5458,3.5458,3.5538,3.5463,3.5463,3.5462,3.5462,0,3.5314,3.534,3.5332,3.5349,3.5378,3.5369,3.5398,3.54,3.5406,3.5425,3.5411,3.5429,3.5421,3.5439,3.5436,3.5467,3.547,3.5471,3.547,3.5473,3.5473,3.548,3.5477,3.5465,3.5464,3.5464,3.5463,0,3.5371,3.5366,3.5396,3.54,3.5402,3.5423,3.5427,3.5444,3.5443,3.5467,3.5472,3.5471,3.5492,3.5489,3.5512,3.551,3.5549,3.5543,3.5546,3.5545,3.5574,3.5572,3.5662,3.5675,3.559,3.5591,3.5591,0,3.5406,3.5425,3.5432,3.5444,3.5448,3.5466,3.5477,3.547,3.5482,3.5494,3.551,3.553,3.5545,3.558,3.5582,3.5601,3.5596,3.5626,3.5598,3.5602,3.5599,3.5598,3.5601,3.5632,3.5633,3.5634,3.5634,0,3.5471,3.5469,3.5484,3.5499,3.5513,3.5524,3.5535,3.5545,3.554,3.5554,3.5575,3.5587,3.5612,3.5633,3.565,3.5656,3.5645,3.5643,3.5651,3.5655,3.5657,3.5658,3.5563,3.5641,3.564,3.564,3.564,3.5639,3.5519,3.5536,3.5545,3.5563,3.5571,3.5582,3.5599,3.5601,3.5618,3.5637,3.5632,3.5657,3.5668,3.5691,3.5698,3.5719,3.5708,3.5718,3.5721,3.5724,3.5729,3.5653,3.5722,3.5722,3.5722,3.5721,3.5721,0,3.5585,3.559,3.5607,3.5623,3.5638,3.5626,3.5638,3.5652,3.5674,3.5685,3.5701,3.5727,3.5748,3.5752,3.5773,3.5789,3.5785,3.5795,3.5794,3.5796,3.5736,3.5729,3.5798,3.5798,3.5798,3.5798,3.5798,3.5798,3.5621,3.565,3.5649,3.5684,3.5689,3.5713,3.5721,3.5733,3.5741,3.5771,3.5788,3.5791,3.58,3.5822,3.5841,3.5842,3.5851,3.5863,3.5863,3.5807,3.58,3.5792,3.5785,3.5865,3.5865,3.5921,3.5921,3.5922]},{"header":{"parameterUnit":"m.s-1","parameterCategory":1,"la1":30.2991,"la2":30.254,"lo1":-89.0895,"lo2":-89.0444,"dy":0.0017,"dx":0.0017,"nx":28,"ny":28,"refTime":"2024-05-15T21:00:00:Z","depth":0,"parameterNumber":3,"parameterNumberName":"V-component_of_WINDS"},"data":[0,0,0,0,0,0,0,0,0,0,0,0,0,0,0,0,0,0,0,0,0,0,0,0,0,0,0,0,0,0,0,0,0,0,0,0,0,0,0,0,0,0,0,0,0,0,0,0,0,0,0,0,0,0,0,0,0,0,-1.4661,-1.4661,0,-1.4612,-1.4611,-1.4611,-1.4645,-1.4646,-1.4648,-1.4649,-1.4595,-1.4592,-1.4589,0,0,0,0,0,0,0,0,0,0,0,0,0,-1.4784,-1.4782,-1.4661,-1.4661,-1.466,-1.4612,-1.4611,-1.4611,-1.4645,-1.4647,-1.4648,-1.465,-1.4596,-1.4592,-1.4589,0,0,0,0,0,0,0,0,0,0,0,0,0,-1.4732,-1.4781,-1.4661,-1.4671,-1.4672,-1.4612,-1.4611,-1.461,-1.4644,-1.4647,-1.4649,-1.4651,-1.4597,-1.4593,-1.4588,-1.4515,0,0,-1.4575,-1.4573,0,0,0,0,0,0,0,0,-1.4735,-1.4727,-1.467,-1.4671,-1.4671,-1.4637,-1.4635,-1.4578,-1.4644,-1.4655,-1.465,-1.4652,-1.4607,-1.4602,-1.4587,-1.4512,-1.451,-1.4575,-1.4572,-1.457,-1.4569,0,0,0,0,0,0,0,-1.4739,-1.473,-1.4642,-1.467,-1.467,-1.4678,-1.4673,-1.4624,-1.4618,-1.4654,-1.4656,-1.465,-1.4607,-1.4591,-1.4586,-1.4509,-1.4575,-1.4571,-1.4568,-1.4567,-1.4375,-1.4373,0,0,0,0,0,0,-1.4742,-1.4733,-1.4643,-1.464,-1.4709,-1.4674,-1.4668,-1.4645,-1.4619,-1.4617,-1.4648,-1.4652,-1.4598,-1.4591,-1.4584,-1.4499,-1.457,-1.4566,-1.4564,-1.4377,-1.4374,-1.4372,0,0,0,0,0,0,-1.4744,-1.4733,-1.4645,-1.4687,-1.4676,-1.4669,-1.4643,-1.4643,-1.4627,-1.4614,-1.4613,-1.4633,-1.4599,-1.459,-1.4533,-1.4497,-1.4564,-1.456,-1.438,-1.4377,-1.4373,-1.4326,0,0,0,0,0,0,-1.4747,-1.4734,-1.4706,-1.4686,-1.4674,-1.4595,-1.4641,-1.4641,-1.462,-1.4625,-1.46,-1.4598,-1.46,-1.4539,-1.4529,-1.4493,-1.4557,-1.4384,-1.4379,-1.4374,-1.433,-1.4321,-1.4313,0,0,0,0,0,-1.4752,-1.4693,-1.4704,-1.4693,-1.4639,-1.4593,-1.4586,-1.4591,-1.4617,-1.4589,-1.4582,-1.4599,-1.4503,-1.4533,-1.4521,-1.4483,-1.4386,-1.438,-1.4375,-1.4334,-1.4323,-1.4313,0,0,0,0,0,0,-1.4706,-1.469,-1.4703,-1.4636,-1.4616,-1.4599,-1.4563,-1.4577,-1.4548,-1.4553,-1.4559,-1.4553,-1.4494,-1.4483,-1.4517,-1.4413,-1.4449,-1.444,-1.4422,-1.4411,-1.4402,-1.4406,-1.4553,0,0,0,0,0,-1.4689,-1.4654,-1.4641,-1.4583,-1.4573,-1.457,-1.4549,-1.4556,-1.4534,-1.4525,-1.4513,-1.4491,-1.4456,-1.4433,-1.44,-1.4329,-1.4325,-1.4297,-1.4289,-1.4281,-1.4274,-1.4239,-1.4227,-1.4353,-1.4354,-1.4354,0,0,-1.4652,-1.4639,-1.4616,-1.4574,-1.4559,-1.4522,-1.4562,-1.452,-1.4493,-1.4518,-1.4464,-1.4455,-1.443,-1.4367,-1.4338,-1.4356,-1.4239,-1.4274,-1.4269,-1.4265,-1.4232,-1.422,-1.4209,-1.435,-1.435,-1.4351,0,0,-1.4566,-1.4552,-1.4504,-1.4489,-1.4467,-1.4466,-1.4454,-1.4435,-1.4431,-1.4377,-1.4396,-1.4364,-1.4303,-1.4286,-1.4269,-1.418,-1.4196,-1.4169,-1.4123,-1.4088,-1.4078,-1.4069,-1.404,-1.4029,-1.4162,-1.4162,-1.4162,0,-1.4522,-1.4468,-1.4477,-1.4435,-1.4417,-1.4441,-1.4393,-1.4377,-1.4344,-1.4331,-1.4352,-1.4279,-1.4263,-1.4198,-1.4177,-1.4162,-1.4149,-1.4172,-1.4079,-1.407,-1.4062,-1.4034,-1.4022,-1.4159,-1.4159,-1.416,-1.416,0,-1.4417,-1.4379,-1.4343,-1.4314,-1.4291,-1.4246,-1.4248,-1.4225,-1.4233,-1.423,-1.4176,-1.416,-1.4126,-1.411,-1.4117,-1.4046,-1.4058,-1.4079,-1.4115,-1.4047,-1.4021,-1.401,-1.4155,-1.4156,-1.4157,-1.4158,0,0,-1.4299,-1.4278,-1.4264,-1.4253,-1.4231,-1.4202,-1.4159,-1.4127,-1.4108,-1.4085,-1.405,-1.4,-1.402,-1.4001,-1.4006,-1.3976,-1.3909,-1.4,-1.4,-1.3985,-1.3833,-1.3818,-1.3805,-1.392,-1.3918,-1.3916,-1.3835,0,-1.4213,-1.414,-1.4148,-1.4077,-1.4044,-1.4067,-1.403,-1.4013,-1.4009,-1.398,-1.3976,-1.3941,-1.3969,-1.3959,-1.393,-1.3924,-1.3879,-1.3929,-1.3887,-1.3886,-1.3894,-1.3791,-1.3775,-1.3699,-1.3825,-1.3823,-1.3822,0,-1.4103,-1.4079,-1.4006,-1.3993,-1.398,-1.3946,-1.3919,-1.3891,-1.3873,-1.3872,-1.3853,-1.3865,-1.3822,-1.386,-1.3801,-1.3836,-1.3819,-1.3814,-1.3811,-1.3808,-1.385,-1.3786,-1.3675,-1.3664,-1.3805,-1.3806,-1.3808,0,-1.4027,-1.3976,-1.3927,-1.3916,-1.3899,-1.3875,-1.3867,-1.3851,-1.3833,-1.3809,-1.3797,-1.3768,-1.3752,-1.373,-1.3733,-1.376,-1.3675,-1.3712,-1.3674,-1.3674,-1.3655,-1.3656,-1.3541,-1.3642,-1.3642,-1.3643,-1.3643,0,-1.3931,-1.3885,-1.3893,-1.3863,-1.3813,-1.3823,-1.3774,-1.3768,-1.3755,-1.3724,-1.3742,-1.3713,-1.3719,-1.369,-1.3692,-1.3645,-1.3637,-1.3636,-1.3638,-1.3635,-1.3636,-1.3625,-1.3631,-1.364,-1.364,-1.3641,-1.3641,0,-1.3837,-1.384,-1.3788,-1.3778,-1.3774,-1.3738,-1.3729,-1.3701,-1.37,-1.3661,-1.3653,-1.3651,-1.3618,-1.362,-1.3581,-1.3583,-1.3526,-1.3532,-1.3532,-1.3534,-1.3497,-1.3501,-1.3371,-1.3355,-1.3466,-1.3465,-1.3464,0,-1.3775,-1.3742,-1.3729,-1.3711,-1.3701,-1.3671,-1.3653,-1.3662,-1.3643,-1.3622,-1.3596,-1.3565,-1.3541,-1.3488,-1.3483,-1.3454,-1.3461,-1.3418,-1.3457,-1.3457,-1.3463,-1.3465,-1.3463,-1.341,-1.3409,-1.3408,-1.3407,0,-1.3667,-1.3672,-1.3646,-1.3622,-1.3601,-1.3581,-1.3564,-1.3547,-1.3555,-1.3532,-1.35,-1.3482,-1.3445,-1.3414,-1.3388,-1.3379,-1.3395,-1.3395,-1.3385,-1.3383,-1.3385,-1.3385,-1.3513,-1.3398,-1.3399,-1.34,-1.34,-1.34,-1.3589,-1.3561,-1.3549,-1.352,-1.3509,-1.3493,-1.3467,-1.3465,-1.3438,-1.341,-1.3417,-1.3381,-1.3366,-1.3333,-1.3322,-1.3294,-1.331,-1.3294,-1.3291,-1.3287,-1.3284,-1.3389,-1.3289,-1.3289,-1.329,-1.329,-1.329,0,-1.3483,-1.3477,-1.3451,-1.3428,-1.3406,-1.3424,-1.3407,-1.3387,-1.3356,-1.3342,-1.3319,-1.3283,-1.3254,-1.3249,-1.3222,-1.3201,-1.3207,-1.3193,-1.3195,-1.3193,-1.3271,-1.3283,-1.3189,-1.3189,-1.3189,-1.3189,-1.3189,-1.3189,-1.3426,-1.3381,-1.3384,-1.3335,-1.3329,-1.3295,-1.3284,-1.327,-1.3259,-1.3219,-1.3196,-1.3193,-1.3183,-1.3156,-1.3131,-1.313,-1.312,-1.3103,-1.3105,-1.3177,-1.3188,-1.3197,-1.3209,-1.31,-1.31,-1.303,-1.303,-1.3029]}]]